Regional Weather Roundup
Issued by NWS

Home | Current Version | Previous Version | Graphics & Text | Print | Product List | Glossary On
Versions: 1 2 3 4 5 6 7 8 9 10 11 12 13 14 15 16 17 18 19 20 21 22 23 24 25 26 27 28 29 30 31 32 33 34 35 36 37 38 39 40 41 42 43 44 45 46 47 48 49 50
048
ASUS44 KJAN 210103
RWRMS

MISSISSIPPI HOURLY WEATHER ROUNDUP
NATIONAL WEATHER SERVICE JACKSON MS
800 PM CDT MON APR 20 2015

NOTE: "FAIR: INDICATES FEW OR NO CLOUDS BELOW 12,000 FEET WITH NO
SIGNIFICANT WEATHER AND/OR OBSTRUCTIONS TO VISIBILITY.

MSZ001>002-007>008-010>013-018>021-025>028-034>036-210200-
NORTHWEST MISSISSIPPI

CITY           SKY/WX    TMP DP  RH WIND       PRES   REMARKS
CLARKSDALE     FAIR      61  46  59 W6        29.90R
GREENWOOD      CLEAR     58  46  64 CALM      29.91R
GREENVILLE     CLEAR     64  40  41 NW5       29.90R
OLIVE BRANCH   CLEAR     57  37  47 W5        29.87R
OXFORD         FAIR      57  43  58 SW5       29.91R
TUNICA         CLEAR     59  46  63 SW7       29.90R
$$

MSZ003>006-009-014>017-022>024-029>033-037>039-210200-
NORTHEAST MISSISSIPPI

CITY           SKY/WX    TMP DP  RH WIND       PRES   REMARKS
COLUMBUS AFB   CLEAR     58  44  60 W7        29.90R
CORINTH        FAIR      59  43  55 CALM      29.87R
GOLDN TRIANGLE CLEAR     61  45  55 NW6       29.90R
STARKVILLE     FAIR      55  46  71 CALM      29.92R
TUPELO         CLEAR     60  41  49 CALM      29.89R
$$

MSZ040-058-210200-
CENTRAL MISSISSIPPI

CITY           SKY/WX    TMP DP  RH WIND       PRES   REMARKS
JACKSON INTL   PTCLDY    61  48  62 CALM      29.93R
JACKSON HAWKNS CLEAR     62  47  57 CALM      29.93R
MERIDIAN KEY   CLEAR     61  48  62 W3        29.92R
MERIDIAN NAS   CLEAR     60  48  64 W6        29.92R
RAYMOND        FAIR      59  54  82 CALM      29.92R
VICKSBURG      CLEAR     59  47  64 CALM      29.92S
$$

MSZ059>079-210200-
SOUTH MISSISSIPPI

CITY           SKY/WX    TMP DP  RH WIND       PRES   REMARKS
BROOKHAVEN       N/A     57  54  88 CALM      29.95R
HATTIESBURG    MOCLDY    66  50  56 NW6       29.92R
MCCOMB         MOCLDY    63  53  70 CALM      29.94R
NATCHEZ        PTCLDY    61  48  63 CALM      29.94R
PINE BELT      PTCLDY    61  46  59 NW5       29.93R
$$

MSZ080>082-210200-
COASTAL MISSISSIPPI

CITY           SKY/WX    TMP DP  RH WIND       PRES   REMARKS
BAY ST LOUIS   MOCLDY    66  52  59 MISG      29.91
BILOXI         MOCLDY    72  56  58 VRB3      29.89R
PASCAGOULA     MOCLDY    70  56  61 NW6       29.89R
GULFPORT       MOCLDY    70  55  59 NW7       29.89R
$$



USA.gov is the U.S. government's official web portal to all federal, state and local government web resources and services.